Time,TemperatureF,DewpointF,PressureIn,WindDirection,WindDirectionDegrees,WindSpeedMPH,WindSpeedGustMPH,Humidity,HourlyPrecipIn,Conditions,Clouds,dailyrainin,SoftwareType,DateUTC
2013-04-24 00:00:00,37.6,37.3,29.93,WNW,288,5.0,0.0,99,0.00,RA,RA,0.00,WeatherDisplay:10.37,2013-04-24 04:00:00,
2013-04-24 00:01:00,37.6,37.3,29.93,NW,315,4.0,6.9,99,0.00,RA,,0.00,WeatherDisplay:10.37,2013-04-24 04:01:00,
2013-04-24 00:02:00,37.6,37.3,29.93,NW,315,4.0,6.9,99,0.00,RA,,0.00,WeatherDisplay:10.37,2013-04-24 04:02:00,
2013-04-24 00:04:00,37.6,37.3,29.92,NW,315,4.0,6.9,99,0.00,RA,,0.00,WeatherDisplay:10.37,2013-04-24 04:04:00,
2013-04-24 00:09:00,37.6,37.3,29.92,WNW,292,1.7,6.9,99,0.00,RA,,0.00,WeatherDisplay:10.37,2013-04-24 04:09:00,
2013-04-24 00:14:00,37.8,37.5,29.93,West,270,4.7,6.9,99,0.00,,,0.00,WeatherDisplay:10.37,2013-04-24 04:14:00,
2013-04-24 00:19:00,37.6,37.3,29.93,West,270,4.0,10.4,99,0.00,,,0.00,WeatherDisplay:10.37,2013-04-24 04:19:00,
2013-04-24 00:24:00,37.6,37.3,29.93,West,270,4.7,9.2,99,0.00,CLR,,0.00,WeatherDisplay:10.37,2013-04-24 04:24:00,
2013-04-24 00:29:00,37.6,37.3,29.93,NW,315,3.3,10.4,99,0.00,CLR,,0.00,WeatherDisplay:10.37,2013-04-24 04:29:00,
2013-04-24 00:34:00,37.6,37.3,29.94,NW,315,1.7,10.4,99,0.00,CLR,,0.00,WeatherDisplay:10.37,2013-04-24 04:34:00,
2013-04-24 00:40:00,37.6,37.3,29.94,NW,306,2.0,0.0,99,0.00,,,0.00,WeatherDisplay:10.37,2013-04-24 04:40:00,
2013-04-24 00:45:00,37.6,37.3,29.94,WNW,301,3.0,0.0,99,0.00,,,0.00,WeatherDisplay:10.37,2013-04-24 04:45:00,
2013-04-24 00:51:00,37.6,37.3,29.94,SW,225,3.3,15.0,99,0.01,RA,,0.01,WeatherDisplay:10.37,2013-04-24 04:51:00,
2013-04-24 00:56:00,37.4,37.1,29.94,West,270,5.7,15.0,99,0.02,RA,,0.02,WeatherDisplay:10.37,2013-04-24 04:56:00,
2013-04-24 01:01:00,37.4,37.1,29.94,West,270,5.7,11.5,99,0.02,RA,,0.02,WeatherDisplay:10.37,2013-04-24 05:01:00,
2013-04-24 01:06:00,37.4,37.1,29.94,West,270,5.7,9.7,99,0.04,RA,,0.04,WeatherDisplay:10.37,2013-04-24 05:06:00,
2013-04-24 01:11:00,37.4,37.1,29.94,West,270,1.7,5.8,99,0.04,RA,,0.04,WeatherDisplay:10.37,2013-04-24 05:11:00,
2013-04-24 01:17:00,37.4,37.1,29.95,West,270,5.7,11.4,99,0.05,RA,,0.05,WeatherDisplay:10.37,2013-04-24 05:17:00,
2013-04-24 01:22:00,37.4,37.1,29.94,West,270,3.3,8.1,99,0.06,RA,,0.06,WeatherDisplay:10.37,2013-04-24 05:22:00,
2013-04-24 01:27:00,37.4,37.1,29.94,West,270,2.4,11.5,99,0.06,RA,,0.06,WeatherDisplay:10.37,2013-04-24 05:27:00,
2013-04-24 01:32:00,37.4,37.1,29.93,West,270,4.7,9.2,99,0.06,,,0.06,WeatherDisplay:10.37,2013-04-24 05:32:00,
2013-04-24 01:37:00,37.6,37.3,29.95,ESE,112,8.8,17.3,99,0.07,RA,,0.07,WeatherDisplay:10.37,2013-04-24 05:37:00,
2013-04-24 01:42:00,37.6,37.3,29.95,North,0,5.7,11.5,99,0.07,RA,,0.07,WeatherDisplay:10.37,2013-04-24 05:42:00,
2013-04-24 01:48:00,37.6,37.3,29.96,North,0,4.0,15.0,99,0.06,CLR,,0.07,WeatherDisplay:10.37,2013-04-24 05:48:00,
2013-04-24 01:53:00,37.6,37.3,29.95,North,0,4.8,9.2,99,0.06,CLR,,0.07,WeatherDisplay:10.37,2013-04-24 05:53:00,
2013-04-24 01:58:00,37.6,37.3,29.95,North,0,8.8,16.5,99,0.05,CLR,,0.07,WeatherDisplay:10.37,2013-04-24 05:58:00,
2013-04-24 02:03:00,37.6,37.3,29.95,NE,45,4.0,8.1,99,0.04,CLR,,0.07,WeatherDisplay:10.37,2013-04-24 06:03:00,
2013-04-24 02:08:00,37.6,37.3,29.94,West,270,4.7,8.1,99,0.05,RA,,0.08,WeatherDisplay:10.37,2013-04-24 06:08:00,
2013-04-24 02:13:00,37.4,37.1,29.94,NW,315,5.7,10.4,99,0.05,RA,,0.08,WeatherDisplay:10.37,2013-04-24 06:13:00,
2013-04-24 02:18:00,37.4,37.1,29.93,West,270,2.4,8.1,99,0.04,,,0.08,WeatherDisplay:10.37,2013-04-24 06:18:00,
2013-04-24 02:23:00,37.4,37.1,29.93,West,270,3.3,15.0,99,0.02,CLR,,0.08,WeatherDisplay:10.37,2013-04-24 06:23:00,
2013-04-24 02:30:00,37.4,37.1,29.93,West,270,7.0,0.0,99,0.00,CLR,CLR,0.08,WeatherDisplay:10.37,2013-04-24 06:30:00,
2013-04-24 02:35:00,37.4,37.1,29.93,NW,315,4.7,6.9,99,0.02,CLR,,0.08,WeatherDisplay:10.37,2013-04-24 06:35:00,
2013-04-24 02:40:00,37.2,36.4,29.93,NW,315,6.4,17.3,97,0.01,CLR,,0.08,WeatherDisplay:10.37,2013-04-24 06:40:00,
2013-04-24 02:45:00,37.2,36.4,29.94,WNW,292,6.0,0.0,97,0.00,CLR,CLR,0.08,WeatherDisplay:10.37,2013-04-24 06:45:00,
2013-04-24 02:50:00,37.2,36.4,29.94,West,270,5.7,12.7,97,0.01,CLR,,0.08,WeatherDisplay:10.37,2013-04-24 06:50:00,
2013-04-24 02:55:00,37.2,36.4,29.94,NW,315,4.0,12.7,97,0.01,CLR,,0.08,WeatherDisplay:10.37,2013-04-24 06:55:00,
2013-04-24 03:00:00,37.0,36.3,29.94,NW,315,10.4,14.5,97,0.01,CLR,,0.08,WeatherDisplay:10.37,2013-04-24 07:00:00,
2013-04-24 03:05:00,36.9,36.1,29.94,SW,225,3.3,10.4,97,0.01,CLR,,0.08,WeatherDisplay:10.37,2013-04-24 07:05:00,
2013-04-24 03:10:00,36.7,35.9,29.95,SW,225,8.1,11.4,97,0.00,CLR,,0.08,WeatherDisplay:10.37,2013-04-24 07:10:00,
2013-04-24 08:14:00,36.3,32.5,29.99,West,270,1.7,11.4,86,0.00,CLR,,0.08,WeatherDisplay:10.37,2013-04-24 12:14:00,
2013-04-24 08:20:00,36.3,32.5,29.99,West,270,4.0,5.8,86,0.00,CLR,,0.08,WeatherDisplay:10.37,2013-04-24 12:20:00,
2013-04-24 08:25:00,36.3,32.5,30.00,West,270,4.7,9.2,86,0.00,CLR,,0.08,WeatherDisplay:10.37,2013-04-24 12:25:00,
2013-04-24 08:30:00,36.3,32.2,29.99,West,270,1.7,5.8,85,0.00,CLR,,0.08,WeatherDisplay:10.37,2013-04-24 12:30:00,
2013-04-24 08:35:00,36.3,32.2,29.99,West,270,2.4,4.6,85,0.00,CLR,,0.08,WeatherDisplay:10.37,2013-04-24 12:35:00,
2013-04-24 08:40:00,36.3,32.2,29.99,NW,315,1.7,9.2,85,0.00,CLR,,0.08,WeatherDisplay:10.37,2013-04-24 12:40:00,
2013-04-24 08:45:00,36.5,32.1,29.99,NW,315,1.7,6.9,84,0.00,CLR,,0.08,WeatherDisplay:10.37,2013-04-24 12:45:00,
2013-04-24 08:50:00,36.5,32.1,29.98,NW,315,4.0,11.5,84,0.00,CLR,,0.08,WeatherDisplay:10.37,2013-04-24 12:50:00,
2013-04-24 08:55:00,36.5,32.1,29.98,NW,315,2.4,9.2,84,0.00,CLR,,0.08,WeatherDisplay:10.37,2013-04-24 12:55:00,
2013-04-24 09:01:00,36.5,31.8,29.99,NW,315,5.7,13.8,83,0.00,CLR,,0.08,WeatherDisplay:10.37,2013-04-24 13:01:00,
2013-04-24 09:06:00,36.7,32.0,29.99,NNW,338,5.7,12.7,83,0.00,CLR,,0.08,WeatherDisplay:10.37,2013-04-24 13:06:00,
2013-04-24 09:11:00,36.7,31.7,29.99,West,270,3.3,12.7,82,0.00,CLR,,0.08,WeatherDisplay:10.37,2013-04-24 13:11:00,
2013-04-24 09:16:00,36.7,31.7,29.99,NW,315,2.4,6.9,82,0.00,CLR,,0.08,WeatherDisplay:10.37,2013-04-24 13:16:00,
2013-04-24 09:21:00,36.9,31.6,29.99,North,0,4.8,15.0,81,0.01,RA,,0.09,WeatherDisplay:10.37,2013-04-24 13:21:00,
2013-04-24 09:27:00,37.0,31.8,29.99,NW,315,2.4,5.8,81,0.01,RA,,0.09,WeatherDisplay:10.37,2013-04-24 13:27:00,
2013-04-24 09:32:00,37.2,31.9,29.99,NW,315,4.0,8.1,81,0.01,,,0.09,WeatherDisplay:10.37,2013-04-24 13:32:00,
2013-04-24 09:37:00,37.2,31.6,29.99,North,0,4.8,11.5,80,0.01,CLR,,0.09,WeatherDisplay:10.37,2013-04-24 13:37:00,
2013-04-24 09:42:00,37.2,31.3,29.99,WSW,248,5.7,12.7,79,0.01,CLR,,0.09,WeatherDisplay:10.37,2013-04-24 13:42:00,
2013-04-24 09:47:00,37.2,31.3,29.99,West,270,5.7,12.7,79,0.01,CLR,,0.09,WeatherDisplay:10.37,2013-04-24 13:47:00,
2013-04-24 09:52:00,37.4,32.4,29.99,West,270,4.0,9.2,82,0.01,CLR,,0.09,WeatherDisplay:10.37,2013-04-24 13:52:00,
2013-04-24 09:57:00,37.6,32.9,29.98,West,270,7.4,12.7,83,0.01,CLR,,0.09,WeatherDisplay:10.37,2013-04-24 13:57:00,
2013-04-24 10:02:00,37.8,33.1,29.99,West,270,7.4,10.4,83,0.01,CLR,,0.09,WeatherDisplay:10.37,2013-04-24 14:02:00,
2013-04-24 10:07:00,37.9,32.9,29.99,West,270,7.4,15.0,82,0.01,CLR,,0.09,WeatherDisplay:10.37,2013-04-24 14:07:00,
2013-04-24 10:12:00,38.1,32.5,29.99,West,270,4.7,13.8,80,0.01,CLR,,0.09,WeatherDisplay:10.37,2013-04-24 14:12:00,
2013-04-24 10:17:00,38.5,32.8,29.99,West,270,8.1,15.0,80,0.01,CLR,,0.09,WeatherDisplay:10.37,2013-04-24 14:17:00,
2013-04-24 10:22:00,38.8,32.6,29.99,West,270,4.7,10.4,78,0.00,CLR,,0.09,WeatherDisplay:10.37,2013-04-24 14:22:00,
2013-04-24 10:28:00,39.2,32.3,30.00,West,270,4.7,11.5,76,0.00,CLR,,0.09,WeatherDisplay:10.37,2013-04-24 14:28:00,
2013-04-24 10:33:00,39.4,32.4,30.00,West,270,4.0,15.0,76,0.00,CLR,,0.09,WeatherDisplay:10.37,2013-04-24 14:33:00,
2013-04-24 10:38:00,39.2,31.9,30.00,West,270,6.4,15.0,75,0.00,CLR,,0.09,WeatherDisplay:10.37,2013-04-24 14:38:00,
2013-04-24 10:43:00,39.2,31.6,30.00,NW,315,7.4,12.8,74,0.00,CLR,,0.09,WeatherDisplay:10.37,2013-04-24 14:43:00,
2013-04-24 10:48:00,39.2,30.9,30.00,West,270,6.4,11.5,72,0.00,CLR,,0.09,WeatherDisplay:10.37,2013-04-24 14:48:00,
2013-04-24 10:53:00,39.2,30.9,30.00,West,270,4.0,10.4,72,0.00,CLR,,0.09,WeatherDisplay:10.37,2013-04-24 14:53:00,
2013-04-24 10:59:00,39.4,31.1,30.01,West,270,4.0,11.5,72,0.00,CLR,,0.09,WeatherDisplay:10.37,2013-04-24 14:59:00,
2013-04-24 11:04:00,39.7,31.8,30.01,NW,315,8.1,16.1,73,0.00,CLR,,0.09,WeatherDisplay:10.37,2013-04-24 15:04:00,
2013-04-24 11:10:00,39.7,31.8,30.02,NW,315,8.8,16.1,73,0.00,CLR,,0.09,WeatherDisplay:10.37,2013-04-24 15:10:00,
2013-04-24 11:15:00,39.9,31.9,30.03,NW,306,5.0,0.0,73,0.00,CLR,CLR,0.09,WeatherDisplay:10.37,2013-04-24 15:15:00,
2013-04-24 11:20:00,40.1,32.1,30.03,NW,315,4.0,10.4,73,0.00,CLR,,0.09,WeatherDisplay:10.37,2013-04-24 15:20:00,
2013-04-24 11:25:00,40.8,33.2,30.03,North,0,4.8,4.8,74,0.00,CLR,,0.09,WeatherDisplay:10.37,2013-04-24 15:25:00,
2013-04-24 11:30:00,41.2,33.2,30.03,North,0,2.0,6.9,73,0.00,CLR,,0.09,WeatherDisplay:10.37,2013-04-24 15:30:00,
2013-04-24 11:35:00,41.2,33.2,30.04,NW,315,7.4,13.8,73,0.00,CLR,,0.09,WeatherDisplay:10.37,2013-04-24 15:35:00,
2013-04-24 11:40:00,40.5,32.5,30.04,NE,45,6.8,12.7,73,0.00,CLR,,0.09,WeatherDisplay:10.37,2013-04-24 15:40:00,
2013-04-24 11:46:00,40.5,32.8,30.04,NE,45,8.8,13.8,74,0.00,CLR,,0.09,WeatherDisplay:10.37,2013-04-24 15:46:00,
2013-04-24 11:51:00,40.1,32.5,30.04,North,0,9.7,17.3,74,0.00,CLR,,0.09,WeatherDisplay:10.37,2013-04-24 15:51:00,
2013-04-24 11:56:00,40.3,33.0,30.03,North,0,5.7,16.1,75,0.00,CLR,,0.09,WeatherDisplay:10.37,2013-04-24 15:56:00,
2013-04-24 12:01:00,40.5,33.2,30.03,West,270,3.3,5.8,75,0.00,CLR,,0.09,WeatherDisplay:10.37,2013-04-24 16:01:00,
2013-04-24 12:06:00,40.6,33.3,30.03,NW,315,8.1,12.8,75,0.00,CLR,,0.09,WeatherDisplay:10.37,2013-04-24 16:06:00,
2013-04-24 12:11:00,40.1,32.8,30.03,NNW,338,4.0,11.5,75,0.00,CLR,,0.09,WeatherDisplay:10.37,2013-04-24 16:11:00,
2013-04-24 12:16:00,39.7,32.8,30.04,West,270,5.7,9.7,76,0.00,CLR,,0.09,WeatherDisplay:10.37,2013-04-24 16:16:00,
2013-04-24 12:21:00,39.2,32.9,30.04,West,270,5.7,10.4,78,0.00,CLR,,0.09,WeatherDisplay:10.37,2013-04-24 16:21:00,
2013-04-24 12:27:00,38.5,33.5,30.04,North,0,5.7,12.7,82,0.00,CLR,,0.09,WeatherDisplay:10.37,2013-04-24 16:27:00,
2013-04-24 12:32:00,38.7,34.5,30.04,NNE,22,7.7,9.2,85,0.00,CLR,,0.09,WeatherDisplay:10.37,2013-04-24 16:32:00,
2013-04-24 12:37:00,39.0,34.6,30.04,North,0,4.8,13.8,84,0.00,CLR,,0.09,WeatherDisplay:10.37,2013-04-24 16:37:00,
2013-04-24 12:43:00,39.0,34.0,30.04,East,90,7.7,13.8,82,0.00,CLR,,0.09,WeatherDisplay:10.37,2013-04-24 16:43:00,
2013-04-24 12:48:00,39.4,33.1,30.04,NE,45,8.8,16.5,78,0.00,CLR,,0.09,WeatherDisplay:10.37,2013-04-24 16:48:00,
2013-04-24 12:53:00,40.1,33.5,30.04,NE,45,6.8,15.0,77,0.00,CLR,,0.09,WeatherDisplay:10.37,2013-04-24 16:53:00,
2013-04-24 12:59:00,40.5,33.2,30.04,NE,45,2.8,12.7,75,0.00,CLR,,0.09,WeatherDisplay:10.37,2013-04-24 16:59:00,
2013-04-24 13:04:00,40.8,33.8,30.04,East,90,8.8,17.3,76,0.00,CLR,,0.09,WeatherDisplay:10.37,2013-04-24 17:04:00,
2013-04-24 13:10:00,41.0,33.3,30.04,ENE,64,2.0,0.0,74,0.00,CLR,CLR,0.09,WeatherDisplay:10.37,2013-04-24 17:10:00,
2013-04-24 13:15:00,41.2,33.2,30.04,NE,45,9.7,19.6,73,0.00,CLR,,0.09,WeatherDisplay:10.37,2013-04-24 17:15:00,
2013-04-24 13:20:00,41.4,33.4,30.05,North,0,7.7,18.4,73,0.00,CLR,,0.09,WeatherDisplay:10.37,2013-04-24 17:20:00,
2013-04-24 13:25:00,41.7,33.4,30.05,NW,315,8.1,15.0,72,0.00,CLR,,0.09,WeatherDisplay:10.37,2013-04-24 17:25:00,
2013-04-24 13:30:00,41.7,32.3,30.05,NW,315,8.1,15.0,69,0.00,CLR,,0.09,WeatherDisplay:10.37,2013-04-24 17:30:00,
2013-04-24 13:35:00,41.5,32.1,30.05,NW,315,6.4,11.5,69,0.00,CLR,,0.09,WeatherDisplay:10.37,2013-04-24 17:35:00,
2013-04-24 13:40:00,41.4,31.9,30.06,West,270,7.4,12.7,69,0.00,CLR,,0.09,WeatherDisplay:10.37,2013-04-24 17:40:00,
2013-04-24 13:45:00,41.2,31.8,30.06,West,270,4.7,15.0,69,0.00,CLR,,0.09,WeatherDisplay:10.37,2013-04-24 17:45:00,
2013-04-24 13:50:00,41.2,32.1,30.07,West,270,5.7,9.7,70,0.00,CLR,,0.09,WeatherDisplay:10.37,2013-04-24 17:50:00,
2013-04-24 13:55:00,41.7,32.3,30.07,West,270,5.7,15.0,69,0.00,CLR,,0.09,WeatherDisplay:10.37,2013-04-24 17:55:00,
2013-04-24 14:01:00,42.3,32.1,30.07,West,270,6.4,17.3,67,0.00,CLR,,0.09,WeatherDisplay:10.37,2013-04-24 18:01:00,
2013-04-24 14:06:00,42.1,31.2,30.07,West,270,8.1,12.7,65,0.00,CLR,,0.09,WeatherDisplay:10.37,2013-04-24 18:06:00,
2013-04-24 14:11:00,43.2,32.6,30.07,West,270,7.4,12.8,66,0.00,CLR,,0.09,WeatherDisplay:10.37,2013-04-24 18:11:00,
2013-04-24 14:16:00,43.2,31.8,30.07,West,270,5.7,15.0,64,0.00,CLR,,0.09,WeatherDisplay:10.37,2013-04-24 18:16:00,
2013-04-24 14:21:00,42.4,29.9,30.08,West,270,6.4,9.2,61,0.00,CLR,,0.09,WeatherDisplay:10.37,2013-04-24 18:21:00,
2013-04-24 14:26:00,42.1,30.4,30.07,West,270,6.4,15.0,63,0.00,CLR,,0.09,WeatherDisplay:10.37,2013-04-24 18:26:00,
2013-04-24 14:31:00,41.5,30.6,30.07,SW,225,5.7,17.3,65,0.00,CLR,,0.09,WeatherDisplay:10.37,2013-04-24 18:31:00,
2013-04-24 14:36:00,41.4,30.8,30.08,SW,225,8.8,16.8,66,0.00,CLR,,0.09,WeatherDisplay:10.37,2013-04-24 18:36:00,
2013-04-24 14:41:00,41.4,30.8,30.07,SW,225,6.4,17.3,66,0.00,CLR,,0.09,WeatherDisplay:10.37,2013-04-24 18:41:00,
2013-04-24 14:47:00,41.4,29.7,30.08,SW,225,4.0,6.9,63,0.00,CLR,,0.09,WeatherDisplay:10.37,2013-04-24 18:47:00,
2013-04-24 14:52:00,41.2,29.9,30.08,SW,225,5.7,15.0,64,0.00,CLR,,0.09,WeatherDisplay:10.37,2013-04-24 18:52:00,
2013-04-24 14:58:00,41.2,30.7,30.08,SW,225,7.4,17.3,66,0.00,CLR,,0.09,WeatherDisplay:10.37,2013-04-24 18:58:00,
2013-04-24 15:03:00,41.2,31.0,30.08,SW,225,8.8,12.7,67,0.00,CLR,,0.09,WeatherDisplay:10.37,2013-04-24 19:03:00,
2013-04-24 15:08:00,41.5,31.8,30.09,SW,225,11.4,18.5,68,0.00,CLR,,0.09,WeatherDisplay:10.37,2013-04-24 19:08:00,
2013-04-24 15:13:00,41.5,31.0,30.08,SW,225,4.0,11.5,66,0.00,CLR,,0.09,WeatherDisplay:10.37,2013-04-24 19:13:00,
2013-04-24 15:19:00,42.3,31.3,30.09,SW,225,10.4,17.3,65,0.00,CLR,,0.09,WeatherDisplay:10.37,2013-04-24 19:19:00,
2013-04-24 15:24:00,42.8,30.7,30.09,SW,225,8.1,17.3,62,0.00,CLR,,0.09,WeatherDisplay:10.37,2013-04-24 19:24:00,
2013-04-24 15:29:00,42.6,30.1,30.09,SW,225,8.1,17.3,61,0.00,CLR,,0.09,WeatherDisplay:10.37,2013-04-24 19:29:00,
2013-04-24 15:35:00,42.4,29.5,30.09,SW,225,7.0,0.0,60,0.00,CLR,CLR,0.09,WeatherDisplay:10.37,2013-04-24 19:35:00,
2013-04-24 15:40:00,43.3,31.1,30.09,SW,225,7.0,0.0,62,0.00,CLR,CLR,0.09,WeatherDisplay:10.37,2013-04-24 19:40:00,
2013-04-24 15:45:00,43.5,30.5,30.09,SW,225,9.7,13.8,60,0.00,CLR,,0.09,WeatherDisplay:10.37,2013-04-24 19:45:00,
2013-04-24 15:50:00,43.3,30.4,30.09,SW,225,8.8,10.4,60,0.00,CLR,,0.09,WeatherDisplay:10.37,2013-04-24 19:50:00,
2013-04-24 15:56:00,44.4,30.6,30.08,SW,225,10.4,12.7,58,0.00,CLR,,0.09,WeatherDisplay:10.37,2013-04-24 19:56:00,
2013-04-24 16:01:00,43.3,28.2,30.08,SW,225,8.1,12.7,55,0.00,CLR,,0.09,WeatherDisplay:10.37,2013-04-24 20:01:00,
2013-04-24 16:07:00,43.9,29.6,30.08,SW,225,11.4,17.8,57,0.00,CLR,,0.09,WeatherDisplay:10.37,2013-04-24 20:07:00,
2013-04-24 16:12:00,43.7,28.1,30.08,SW,225,9.7,15.0,54,0.00,CLR,,0.09,WeatherDisplay:10.37,2013-04-24 20:12:00,
2013-04-24 16:17:00,43.7,26.7,30.08,SW,225,6.4,15.0,51,0.00,CLR,,0.09,WeatherDisplay:10.37,2013-04-24 20:17:00,
2013-04-24 16:22:00,44.1,27.1,30.08,SW,225,5.7,11.5,51,0.00,CLR,,0.09,WeatherDisplay:10.37,2013-04-24 20:22:00,
2013-04-24 16:27:00,44.4,27.4,30.08,SW,225,8.8,17.3,51,0.00,CLR,,0.09,WeatherDisplay:10.37,2013-04-24 20:27:00,
2013-04-24 16:33:00,44.8,27.7,30.07,SW,225,6.4,11.5,51,0.00,CLR,,0.09,WeatherDisplay:10.37,2013-04-24 20:33:00,
2013-04-24 16:38:00,45.7,27.1,30.07,SW,225,5.7,11.5,48,0.00,CLR,,0.09,WeatherDisplay:10.37,2013-04-24 20:38:00,
2013-04-24 16:43:00,45.7,25.5,30.07,SW,225,7.4,12.8,45,0.00,CLR,,0.09,WeatherDisplay:10.37,2013-04-24 20:43:00,
2013-04-24 16:48:00,45.9,25.2,30.07,SW,225,6.4,11.4,44,0.00,CLR,,0.09,WeatherDisplay:10.37,2013-04-24 20:48:00,
2013-04-24 16:53:00,46.4,24.5,30.06,SW,225,6.4,10.4,42,0.00,CLR,,0.09,WeatherDisplay:10.37,2013-04-24 20:53:00,
2013-04-24 16:59:00,45.9,23.5,30.06,SW,225,7.4,11.5,41,0.00,CLR,,0.09,WeatherDisplay:10.37,2013-04-24 20:59:00,
2013-04-24 17:04:00,45.7,23.3,30.06,SW,225,8.1,11.5,41,0.00,CLR,,0.09,WeatherDisplay:10.37,2013-04-24 21:04:00,
2013-04-24 17:09:00,46.2,22.0,30.05,SW,225,7.4,8.1,38,0.00,CLR,,0.09,WeatherDisplay:10.37,2013-04-24 21:09:00,
2013-04-24 17:14:00,46.6,20.4,30.05,SW,225,5.7,9.2,35,0.00,CLR,,0.09,WeatherDisplay:10.37,2013-04-24 21:14:00,
2013-04-24 17:19:00,47.3,21.0,30.05,SW,225,3.3,6.9,35,0.00,CLR,,0.09,WeatherDisplay:10.37,2013-04-24 21:19:00,
2013-04-24 17:24:00,47.7,21.3,30.05,SW,225,3.3,8.1,35,0.00,CLR,,0.09,WeatherDisplay:10.37,2013-04-24 21:24:00,
2013-04-24 17:29:00,48.2,20.4,30.04,SW,225,6.4,8.1,33,0.00,CLR,,0.09,WeatherDisplay:10.37,2013-04-24 21:29:00,
2013-04-24 17:35:00,48.1,20.4,30.04,SW,225,1.0,0.0,33,0.00,CLR,CLR,0.09,WeatherDisplay:10.37,2013-04-24 21:35:00,
2013-04-24 17:40:00,49.1,20.5,30.04,SW,225,4.0,8.1,32,0.00,CLR,,0.09,WeatherDisplay:10.37,2013-04-24 21:40:00,
2013-04-24 17:45:00,49.1,19.0,30.04,SW,225,1.7,4.6,30,0.00,CLR,,0.09,WeatherDisplay:10.37,2013-04-24 21:45:00,
2013-04-24 17:50:00,50.2,22.1,30.03,SW,225,5.7,6.9,33,0.00,CLR,,0.09,WeatherDisplay:10.37,2013-04-24 21:50:00,
2013-04-24 17:55:00,49.8,21.8,30.03,SW,225,4.0,6.9,33,0.00,CLR,,0.09,WeatherDisplay:10.37,2013-04-24 21:55:00,
2013-04-24 18:00:00,49.6,22.4,30.03,SW,225,2.4,4.7,34,0.00,CLR,,0.09,WeatherDisplay:10.37,2013-04-24 22:00:00,
2013-04-24 18:06:00,50.2,22.1,30.02,SW,225,4.0,6.9,33,0.00,CLR,,0.09,WeatherDisplay:10.37,2013-04-24 22:06:00,
2013-04-24 18:11:00,50.5,23.2,30.02,SW,225,4.0,4.6,34,0.00,CLR,,0.09,WeatherDisplay:10.37,2013-04-24 22:11:00,
2013-04-24 18:16:00,49.6,22.4,30.02,SW,225,4.0,9.2,34,0.00,CLR,,0.09,WeatherDisplay:10.37,2013-04-24 22:16:00,
2013-04-24 18:21:00,48.6,22.1,30.02,SW,225,1.7,6.9,35,0.00,CLR,,0.09,WeatherDisplay:10.37,2013-04-24 22:21:00,
2013-04-24 18:26:00,49.1,24.6,30.02,SW,225,1.7,4.6,38,0.00,CLR,,0.09,WeatherDisplay:10.37,2013-04-24 22:26:00,
2013-04-24 18:32:00,49.5,24.2,30.01,SW,225,5.7,8.1,37,0.00,CLR,,0.09,WeatherDisplay:10.37,2013-04-24 22:32:00,
2013-04-24 18:37:00,48.2,22.5,30.01,SW,225,4.7,8.1,36,0.00,CLR,,0.09,WeatherDisplay:10.37,2013-04-24 22:37:00,
2013-04-24 18:42:00,48.0,23.6,30.00,SW,225,4.7,7.4,38,0.00,CLR,,0.09,WeatherDisplay:10.37,2013-04-24 22:42:00,
2013-04-24 18:47:00,48.4,23.3,30.00,SW,225,3.3,6.9,37,0.00,CLR,,0.09,WeatherDisplay:10.37,2013-04-24 22:47:00,
2013-04-24 18:52:00,48.4,23.3,30.00,SW,225,8.1,9.2,37,0.00,CLR,,0.09,WeatherDisplay:10.37,2013-04-24 22:52:00,
2013-04-24 18:57:00,47.5,23.1,30.00,SW,225,5.7,9.2,38,0.00,CLR,,0.09,WeatherDisplay:10.37,2013-04-24 22:57:00,
2013-04-24 19:02:00,47.1,24.0,30.00,SW,225,5.7,11.5,40,0.00,CLR,,0.09,WeatherDisplay:10.37,2013-04-24 23:02:00,
2013-04-24 19:07:00,47.1,24.6,29.99,SW,225,5.7,9.2,41,0.00,CLR,,0.09,WeatherDisplay:10.37,2013-04-24 23:07:00,
2013-04-24 19:13:00,46.9,26.1,29.99,SW,225,7.4,9.2,44,0.00,CLR,,0.09,WeatherDisplay:10.37,2013-04-24 23:13:00,
2013-04-24 19:18:00,46.6,25.3,29.99,SW,225,6.4,8.1,43,0.00,CLR,,0.09,WeatherDisplay:10.37,2013-04-24 23:18:00,
2013-04-24 19:23:00,46.6,25.8,29.99,SW,225,4.7,9.2,44,0.00,CLR,,0.09,WeatherDisplay:10.37,2013-04-24 23:23:00,
2013-04-24 19:28:00,46.4,25.6,29.99,SW,225,5.7,8.1,44,0.00,CLR,,0.09,WeatherDisplay:10.37,2013-04-24 23:28:00,
2013-04-24 19:33:00,46.4,26.2,29.99,SW,225,5.7,8.1,45,0.00,CLR,,0.09,WeatherDisplay:10.37,2013-04-24 23:33:00,
2013-04-24 19:38:00,46.4,26.7,29.99,SW,225,4.0,5.7,46,0.00,CLR,,0.09,WeatherDisplay:10.37,2013-04-24 23:38:00,
2013-04-24 19:43:00,46.6,26.4,29.99,SW,225,2.4,9.2,45,0.00,CLR,,0.09,WeatherDisplay:10.37,2013-04-24 23:43:00,
2013-04-24 19:49:00,46.4,26.7,30.00,SW,225,3.3,6.9,46,0.00,CLR,,0.09,WeatherDisplay:10.37,2013-04-24 23:49:00,
2013-04-24 19:54:00,46.4,27.2,30.00,SW,225,5.7,8.1,47,0.00,CLR,,0.09,WeatherDisplay:10.37,2013-04-24 23:54:00,
2013-04-24 19:59:00,46.4,27.2,30.00,South,180,5.7,9.7,47,0.00,CLR,,0.09,WeatherDisplay:10.37,2013-04-24 23:59:00,
2013-04-24 20:04:00,46.0,26.9,30.00,South,180,4.7,6.9,47,0.00,CLR,,0.09,WeatherDisplay:10.37,2013-04-25 00:04:00,
2013-04-24 20:09:00,46.0,27.9,30.01,South,180,4.7,4.7,49,0.00,CLR,,0.09,WeatherDisplay:10.37,2013-04-25 00:09:00,
2013-04-24 20:14:00,45.9,28.7,30.01,South,180,5.7,6.9,51,0.00,CLR,,0.09,WeatherDisplay:10.37,2013-04-25 00:14:00,
2013-04-24 20:20:00,45.7,28.6,30.02,South,180,5.0,0.0,51,0.00,CLR,CLR,0.09,WeatherDisplay:10.37,2013-04-25 00:20:00,
2013-04-24 20:25:00,45.1,28.1,30.02,South,180,3.0,0.0,51,0.00,CLR,CLR,0.09,WeatherDisplay:10.37,2013-04-25 00:25:00,
2013-04-24 20:30:00,44.6,28.0,30.03,South,180,3.3,4.7,52,0.00,CLR,,0.09,WeatherDisplay:10.37,2013-04-25 00:30:00,
2013-04-24 20:35:00,44.2,28.6,30.04,South,180,2.4,4.6,54,0.00,CLR,,0.09,WeatherDisplay:10.37,2013-04-25 00:35:00,
2013-04-24 20:40:00,43.7,28.6,30.04,South,180,2.4,4.6,55,0.00,CLR,,0.09,WeatherDisplay:10.37,2013-04-25 00:40:00,
2013-04-24 20:45:00,43.5,28.8,30.05,South,180,3.3,4.7,56,0.00,CLR,,0.09,WeatherDisplay:10.37,2013-04-25 00:45:00,
2013-04-24 20:50:00,43.3,29.1,30.05,South,180,1.7,2.3,57,0.00,CLR,,0.09,WeatherDisplay:10.37,2013-04-25 00:50:00,
2013-04-24 20:55:00,43.2,29.8,30.06,South,180,1.7,3.5,59,0.00,CLR,,0.09,WeatherDisplay:10.37,2013-04-25 00:55:00,
2013-04-24 21:00:00,43.2,30.2,30.06,South,180,1.7,3.5,60,0.00,CLR,,0.09,WeatherDisplay:10.37,2013-04-25 01:00:00,
2013-04-24 21:05:00,42.8,29.5,30.07,South,180,0.7,2.3,59,0.00,CLR,,0.09,WeatherDisplay:10.37,2013-04-25 01:05:00,
2013-04-24 21:10:00,42.4,29.9,30.07,South,180,1.7,2.3,61,0.00,CLR,,0.09,WeatherDisplay:10.37,2013-04-25 01:10:00,
2013-04-24 21:15:00,42.3,30.2,30.08,South,180,0.7,2.4,62,0.00,CLR,,0.09,WeatherDisplay:10.37,2013-04-25 01:15:00,
2013-04-24 21:21:00,42.3,30.6,30.08,South,180,1.7,2.3,63,0.00,CLR,,0.09,WeatherDisplay:10.37,2013-04-25 01:21:00,
2013-04-24 21:26:00,42.3,30.6,30.09,South,180,0.7,2.3,63,0.00,CLR,,0.09,WeatherDisplay:10.37,2013-04-25 01:26:00,
2013-04-24 21:31:00,42.1,30.4,30.09,South,180,1.7,3.5,63,0.00,CLR,,0.09,WeatherDisplay:10.37,2013-04-25 01:31:00,
2013-04-24 21:36:00,42.1,30.4,30.09,South,180,0.7,3.5,63,0.00,CLR,,0.09,WeatherDisplay:10.37,2013-04-25 01:36:00,
2013-04-24 21:41:00,42.1,30.8,30.10,South,180,2.4,3.5,64,0.00,CLR,,0.09,WeatherDisplay:10.37,2013-04-25 01:41:00,
2013-04-24 21:46:00,42.1,30.8,30.11,South,180,1.7,3.5,64,0.00,CLR,,0.09,WeatherDisplay:10.37,2013-04-25 01:46:00,
2013-04-24 21:51:00,42.1,30.8,30.11,South,180,1.7,2.3,64,0.00,CLR,,0.09,WeatherDisplay:10.37,2013-04-25 01:51:00,
2013-04-24 21:56:00,42.1,30.4,30.12,South,180,4.0,4.6,63,0.00,CLR,,0.09,WeatherDisplay:10.37,2013-04-25 01:56:00,
2013-04-24 22:01:00,41.9,30.6,30.12,South,180,2.4,4.6,64,0.00,CLR,,0.09,WeatherDisplay:10.37,2013-04-25 02:01:00,
2013-04-24 22:06:00,41.9,30.6,30.12,South,180,2.4,3.5,64,0.00,CLR,,0.09,WeatherDisplay:10.37,2013-04-25 02:06:00,
2013-04-24 22:11:00,41.7,30.4,30.12,SSE,158,3.3,4.6,64,0.00,CLR,,0.09,WeatherDisplay:10.37,2013-04-25 02:11:00,
2013-04-24 22:16:00,41.7,30.8,30.13,South,180,3.3,4.7,65,0.00,CLR,,0.09,WeatherDisplay:10.37,2013-04-25 02:16:00,
2013-04-24 22:21:00,41.5,30.6,30.13,South,180,4.0,5.8,65,0.00,CLR,,0.09,WeatherDisplay:10.37,2013-04-25 02:21:00,
2013-04-24 22:27:00,41.5,30.6,30.14,South,180,4.0,5.8,65,0.00,CLR,,0.09,WeatherDisplay:10.37,2013-04-25 02:27:00,
2013-04-24 22:32:00,41.5,30.6,30.14,South,180,3.3,5.8,65,0.00,CLR,,0.09,WeatherDisplay:10.37,2013-04-25 02:32:00,
2013-04-24 22:37:00,41.5,30.6,30.14,South,180,4.0,6.9,65,0.00,CLR,,0.09,WeatherDisplay:10.37,2013-04-25 02:37:00,
2013-04-24 22:42:00,41.5,31.0,30.14,South,180,3.3,4.6,66,0.00,CLR,,0.09,WeatherDisplay:10.37,2013-04-25 02:42:00,
2013-04-24 22:47:00,41.7,31.2,30.15,South,180,4.0,6.9,66,0.00,CLR,,0.09,WeatherDisplay:10.37,2013-04-25 02:47:00,
2013-04-24 22:52:00,41.7,31.2,30.15,South,180,4.0,5.8,66,0.00,CLR,,0.09,WeatherDisplay:10.37,2013-04-25 02:52:00,
2013-04-24 22:58:00,41.7,31.6,30.15,South,180,3.3,4.6,67,0.00,CLR,,0.09,WeatherDisplay:10.37,2013-04-25 02:58:00,
2013-04-24 23:03:00,41.5,31.4,30.16,South,180,2.4,4.6,67,0.00,CLR,,0.09,WeatherDisplay:10.37,2013-04-25 03:03:00,
2013-04-24 23:08:00,41.5,31.4,30.16,South,180,2.4,4.6,67,0.00,CLR,,0.09,WeatherDisplay:10.37,2013-04-25 03:08:00,
2013-04-24 23:13:00,41.5,31.8,30.16,South,180,2.4,4.6,68,0.00,CLR,,0.09,WeatherDisplay:10.37,2013-04-25 03:13:00,
2013-04-24 23:18:00,41.5,31.4,30.17,South,180,3.3,5.8,67,0.00,CLR,,0.09,WeatherDisplay:10.37,2013-04-25 03:18:00,
2013-04-24 23:23:00,41.5,31.8,30.16,South,180,4.7,6.9,68,0.00,CLR,,0.09,WeatherDisplay:10.37,2013-04-25 03:23:00,
2013-04-24 23:28:00,41.4,31.2,30.17,South,180,5.7,8.1,67,0.00,CLR,,0.09,WeatherDisplay:10.37,2013-04-25 03:28:00,
2013-04-24 23:34:00,41.4,31.2,30.17,South,180,4.0,6.9,67,0.00,CLR,,0.09,WeatherDisplay:10.37,2013-04-25 03:34:00,
2013-04-24 23:39:00,41.4,31.6,30.17,South,180,3.3,5.8,68,0.00,CLR,,0.09,WeatherDisplay:10.37,2013-04-25 03:39:00,
2013-04-24 23:44:00,41.4,31.6,30.17,South,180,3.3,6.9,68,0.00,CLR,,0.09,WeatherDisplay:10.37,2013-04-25 03:44:00,
2013-04-24 23:49:00,41.4,31.6,30.17,South,180,3.3,5.8,68,0.00,CLR,,0.09,WeatherDisplay:10.37,2013-04-25 03:49:00,
2013-04-24 23:54:00,41.5,31.8,30.18,South,180,4.0,8.1,68,0.00,CLR,,0.09,WeatherDisplay:10.37,2013-04-25 03:54:00,
2013-04-24 23:59:00,41.5,31.8,30.18,South,180,4.0,6.9,68,0.00,CLR,,0.09,WeatherDisplay:10.37,2013-04-25 03:59:00,